Location: Peterborough
(44.3091°N, 78.3197°W)
Time: 23:35:03
(UTC-05:00)

Vanguard 1 Rocket - Pass Details

Date: 12 December 2023
Orbit: 654 x 4218 km, 34.3° (Epoch: 24 February)

Event Time Altitude Azimuth Distance (km) Brightness Sun altitude
Exits shadow 05:36:33 15° 253° (WSW) 6,717 11.3 -21.1°
Maximum altitude 05:56:24 60° 183° (S) 3,249 10.1 -17.7°
Drops below altitude 10° 06:09:05 10° 108° (ESE) 4,342 12.3 -15.5°
Sets 06:11:46 0° 104° (ESE) 4,989 13.1 -15.1°
